[[{"header":{"parameterUnit":"m.s-1","parameterCategory":2,"la1":30.2991,"la2":30.254,"lo1":-89.0895,"lo2":-89.0444,"dy":0.0017,"dx":0.0017,"nx":28,"ny":28,"refTime":"2024-08-03T09:00:00:Z","depth":"0","parameterNumber":2,"parameterNumberName":"U-component_of_CURRENTS"},"data":[0,0,0,0,0,0,0,0,0,0,0,0,0,0,0,0,0,0,0,0,0,0,0,0,0,0,0,0,0,0,0,0,0,0,0,0,0,0,0,0,0,0,0,0,0,0,0,0,0,0,0,0,0,0,0,0,0,0,0.3938,0.3939,0,0.3991,0.3992,0.3992,0.3992,0.3992,0.3992,0.3992,0.4004,0.4004,0.4005,0,0,0,0,0,0,0,0,0,0,0,0,0,0.3847,0.3848,0.3938,0.3939,0.394,0.3991,0.3992,0.3992,0.3992,0.3992,0.3992,0.3992,0.4004,0.4004,0.4005,0,0,0,0,0,0,0,0,0,0,0,0,0,0.3887,0.3848,0.3938,0.3951,0.3953,0.3991,0.3992,0.3992,0.3992,0.3992,0.3992,0.3991,0.4004,0.4004,0.4005,0.4014,0,0,0.4007,0.4007,0,0,0,0,0,0,0,0,0.3884,0.3889,0.3948,0.395,0.3953,0.399,0.3965,0.3999,0.3992,0.3971,0.3992,0.3991,0.3999,0.4,0.4003,0.4015,0.4015,0.4007,0.4008,0.4008,0.4008,0,0,0,0,0,0,0,0.3881,0.3887,0.3953,0.3949,0.3952,0.3959,0.3963,0.3971,0.3981,0.3973,0.3975,0.399,0.4,0.4003,0.4004,0.4015,0.4007,0.4008,0.4008,0.4009,0.4073,0.4074,0,0,0,0,0,0,0.3886,0.3884,0.3952,0.3955,0.3924,0.3961,0.3965,0.3973,0.3982,0.3985,0.399,0.399,0.4002,0.4003,0.4004,0.4087,0.4008,0.4009,0.4009,0.4072,0.4073,0.4075,0,0,0,0,0,0,0.3884,0.3892,0.3949,0.3926,0.3935,0.3963,0.3972,0.3975,0.3981,0.3996,0.3997,0.3994,0.4001,0.4003,0.4019,0.4085,0.4009,0.401,0.407,0.4072,0.4074,0.4207,0,0,0,0,0,0,0.3881,0.389,0.3896,0.3926,0.3936,0.3978,0.3973,0.3976,0.3994,0.3993,0.4,0.4001,0.4001,0.4018,0.4019,0.4084,0.401,0.4069,0.4071,0.4073,0.4201,0.4213,0.4224,0,0,0,0,0,0.3877,0.3888,0.3896,0.3904,0.3944,0.398,0.3985,0.4,0.3994,0.4002,0.4007,0.4,0.4035,0.4019,0.4021,0.4088,0.4067,0.407,0.4073,0.4196,0.4211,0.4223,0,0,0,0,0,0,0.3855,0.3891,0.3899,0.3921,0.3952,0.3982,0.3995,0.4002,0.4011,0.401,0.401,0.4012,0.4058,0.4038,0.4021,0.4109,0.4053,0.4056,0.4145,0.4159,0.417,0.4248,0.4011,0,0,0,0,0,0.3854,0.3866,0.3907,0.3924,0.3941,0.3966,0.3982,0.3995,0.4012,0.4016,0.4024,0.4035,0.4071,0.4084,0.4098,0.4137,0.4199,0.4179,0.4191,0.4201,0.4263,0.4407,0.444,0.4084,0.4084,0.4084,0,0,0.3849,0.3873,0.3879,0.392,0.3942,0.3996,0.3973,0.4003,0.4061,0.4016,0.4076,0.4073,0.4087,0.4145,0.4163,0.4138,0.4328,0.4204,0.4214,0.4271,0.4414,0.445,0.4482,0.4086,0.4086,0.4086,0,0,0.3863,0.3869,0.3895,0.3929,0.3975,0.4004,0.4016,0.4051,0.4078,0.4124,0.4127,0.4171,0.4183,0.4243,0.4268,0.4346,0.4382,0.4325,0.4457,0.4596,0.4628,0.4658,0.4769,0.4808,0.4334,0.4334,0.4334,0,0.3862,0.3909,0.3909,0.3958,0.4006,0.4016,0.408,0.4116,0.4154,0.4204,0.4156,0.4261,0.4257,0.4395,0.4425,0.4385,0.4454,0.4408,0.4619,0.4649,0.4678,0.4785,0.4826,0.4341,0.434,0.4339,0.4339,0,0.3918,0.3958,0.3978,0.4053,0.4095,0.4147,0.4209,0.4256,0.4279,0.4326,0.4435,0.444,0.4516,0.4514,0.45,0.4695,0.4675,0.4619,0.46,0.4723,0.4825,0.4866,0.435,0.4348,0.4346,0.4344,0,0,0.3919,0.4005,0.4012,0.4078,0.4156,0.4207,0.4309,0.4426,0.4519,0.4553,0.4687,0.4756,0.476,0.4792,0.4781,0.4901,0.5137,0.4856,0.486,0.4997,0.545,0.5303,0.5332,0.5123,0.5131,0.5138,0.5438,0,0.3977,0.4097,0.4115,0.4241,0.4326,0.4371,0.4471,0.4571,0.464,0.4759,0.4823,0.492,0.4866,0.4904,0.5028,0.5103,0.5252,0.5061,0.5286,0.5294,0.5174,0.5378,0.4998,0.5224,0.5478,0.5484,0.5489,0,0.4046,0.4125,0.4259,0.4385,0.4421,0.4486,0.4666,0.4752,0.4912,0.4962,0.5084,0.5115,0.5304,0.521,0.5495,0.5375,0.5457,0.5509,0.552,0.5381,0.5225,0.5142,0.5288,0.5127,0.5552,0.5547,0.5542,0,0.4113,0.4228,0.4348,0.4393,0.4531,0.4598,0.467,0.4821,0.4922,0.5101,0.5188,0.5375,0.5476,0.5632,0.5725,0.5643,0.602,0.5903,0.5868,0.5856,0.5581,0.5531,0.5627,0.6164,0.6163,0.6162,0.6162,0,0.4197,0.4284,0.4382,0.4458,0.4599,0.4658,0.4813,0.4908,0.5056,0.5196,0.5294,0.5436,0.5595,0.5784,0.5853,0.6001,0.6137,0.5977,0.5961,0.5606,0.5558,0.5436,0.5369,0.6174,0.6171,0.6169,0.6167,0,0.4255,0.4317,0.4468,0.4605,0.4641,0.4744,0.4871,0.4988,0.5108,0.5297,0.5362,0.5566,0.5797,0.5944,0.62,0.6154,0.6111,0.6315,0.5873,0.5799,0.5531,0.5482,0.5471,0.533,0.6333,0.6332,0.6331,0,0.4299,0.4391,0.4566,0.4645,0.4697,0.4823,0.4914,0.502,0.5127,0.5364,0.5464,0.5724,0.5865,0.6164,0.6161,0.6292,0.6128,0.5996,0.5768,0.5549,0.5487,0.5302,0.5171,0.5458,0.545,0.5443,0.5438,0,0.442,0.4484,0.4611,0.4744,0.4842,0.4937,0.5047,0.5119,0.5254,0.5373,0.5544,0.5663,0.5893,0.5805,0.5932,0.5954,0.5635,0.5861,0.5763,0.4957,0.4639,0.4476,0.5226,0.5379,0.5385,0.5389,0.5392,0.5395,0.4525,0.4614,0.4763,0.4847,0.4952,0.4999,0.5006,0.5109,0.52,0.5255,0.5461,0.548,0.5426,0.5518,0.5525,0.5223,0.5319,0.4972,0.4987,0.4864,0.4555,0.5177,0.5211,0.5216,0.522,0.5224,0.5227,0,0.4659,0.4723,0.484,0.4933,0.4956,0.4996,0.5055,0.4982,0.4984,0.5076,0.5121,0.4954,0.4802,0.4767,0.4515,0.4332,0.4151,0.4215,0.3857,0.3817,0.4477,0.4257,0.3925,0.3925,0.3925,0.3925,0.3925,0.3925,0.4756,0.4867,0.4858,0.4873,0.4892,0.4804,0.4764,0.4678,0.4662,0.4455,0.4303,0.4289,0.4251,0.4044,0.3771,0.3688,0.3464,0.3235,0.3406,0.3822,0.3891,0.3957,0.3736,0.33,0.3299,0.2471,0.2465,0.246]},{"header":{"parameterUnit":"m.s-1","parameterCategory":2,"la1":30.2991,"la2":30.254,"lo1":-89.0895,"lo2":-89.0444,"dy":0.0017,"dx":0.0017,"nx":28,"ny":28,"refTime":"2024-08-03T09:00:00:Z","depth":"0","parameterNumber":3,"parameterNumberName":"V-component_of_CURRENTS"},"data":[0,0,0,0,0,0,0,0,0,0,0,0,0,0,0,0,0,0,0,0,0,0,0,0,0,0,0,0,0,0,0,0,0,0,0,0,0,0,0,0,0,0,0,0,0,0,0,0,0,0,0,0,0,0,0,0,0,0,-0.0093,-0.0093,0,-0.0164,-0.0164,-0.0165,-0.0215,-0.0215,-0.0216,-0.0216,-0.0282,-0.0283,-0.0284,0,0,0,0,0,0,0,0,0,0,0,0,0,-0.001,-0.0011,-0.0093,-0.0094,-0.0095,-0.0164,-0.0165,-0.0165,-0.0215,-0.0215,-0.0216,-0.0216,-0.0281,-0.0283,-0.0284,0,0,0,0,0,0,0,0,0,0,0,0,0,-0.0059,-0.0012,-0.0092,-0.0128,-0.0132,-0.0163,-0.0165,-0.0166,-0.0215,-0.0215,-0.0216,-0.0217,-0.0281,-0.0283,-0.0285,-0.0283,0,0,-0.0291,-0.0292,0,0,0,0,0,0,0,0,-0.0056,-0.0062,-0.0122,-0.0126,-0.013,-0.0182,-0.016,-0.0205,-0.0214,-0.0182,-0.0216,-0.0217,-0.0248,-0.0253,-0.0263,-0.0286,-0.0288,-0.0291,-0.0292,-0.0293,-0.0293,0,0,0,0,0,0,0,-0.0053,-0.0059,-0.012,-0.0123,-0.0128,-0.0145,-0.0152,-0.0168,-0.0209,-0.0185,-0.0189,-0.0198,-0.025,-0.0261,-0.0265,-0.0289,-0.0291,-0.0293,-0.0294,-0.0294,-0.0318,-0.0317,0,0,0,0,0,0,-0.0045,-0.0056,-0.0118,-0.0122,-0.0095,-0.0145,-0.0154,-0.0164,-0.021,-0.0218,-0.0198,-0.02,-0.0257,-0.0263,-0.0268,-0.0254,-0.0293,-0.0295,-0.0296,-0.0318,-0.0318,-0.0317,0,0,0,0,0,0,-0.0043,-0.005,-0.0115,-0.0091,-0.0101,-0.0146,-0.0157,-0.0165,-0.0175,-0.0219,-0.0227,-0.0199,-0.0258,-0.0265,-0.0277,-0.0257,-0.0296,-0.0297,-0.0319,-0.0318,-0.0317,-0.0235,0,0,0,0,0,0,-0.004,-0.0048,-0.0044,-0.0091,-0.0102,-0.0117,-0.0157,-0.0166,-0.018,-0.0184,-0.0223,-0.023,-0.0259,-0.0273,-0.0278,-0.0261,-0.0299,-0.032,-0.0319,-0.0318,-0.0238,-0.0231,-0.0225,0,0,0,0,0,-0.0037,-0.0025,-0.0044,-0.0051,-0.0098,-0.0116,-0.0123,-0.0157,-0.0179,-0.0171,-0.0204,-0.0229,-0.0271,-0.0274,-0.028,-0.0263,-0.032,-0.0319,-0.0318,-0.0241,-0.0233,-0.0226,0,0,0,0,0,0,0.0013,-0.0031,-0.0052,-0.0054,-0.0078,-0.0125,-0.0121,-0.0149,-0.017,-0.0174,-0.022,-0.0228,-0.0232,-0.0259,-0.0262,-0.0268,-0.03,-0.03,-0.024,-0.0232,-0.0226,-0.0184,-0.0301,0,0,0,0,0,0.0026,0.0022,-0.0022,-0.0022,-0.0031,-0.0075,-0.0086,-0.011,-0.014,-0.015,-0.0181,-0.0212,-0.0232,-0.0241,-0.0263,-0.0262,-0.0249,-0.0257,-0.025,-0.0244,-0.0216,-0.0183,-0.0169,-0.0313,-0.0313,-0.0313,0,0,0.0042,0.002,0.0016,-0.0011,-0.0034,-0.0033,-0.0082,-0.0091,-0.0091,-0.0153,-0.0154,-0.0188,-0.0227,-0.0228,-0.0233,-0.0248,-0.0196,-0.0243,-0.0237,-0.0211,-0.018,-0.0165,-0.0152,-0.0312,-0.0312,-0.0312,0,0,0.0081,0.0057,0.007,0.0057,0.0031,0.0005,0.0006,-0.0034,-0.0049,-0.0059,-0.0103,-0.0116,-0.0156,-0.0171,-0.0186,-0.0154,-0.0163,-0.0174,-0.0105,-0.0074,-0.0061,-0.0049,-0.0005,0.001,-0.017,-0.017,-0.017,0,0.0107,0.0107,0.0073,0.0085,0.008,0.0028,0.0044,0.0026,-0.0014,-0.0013,-0.0047,-0.0081,-0.0121,-0.0108,-0.0106,-0.0135,-0.0116,-0.0131,-0.0061,-0.005,-0.0039,0.0003,0.0018,-0.0166,-0.0167,-0.0167,-0.0167,0,0.0152,0.0154,0.0163,0.0158,0.0156,0.0159,0.0128,0.0126,0.0095,0.0075,0.0077,0.0027,0.0014,-0.0012,-0.0052,-0.0004,-0.0013,-0.0055,-0.0073,-0.0019,0.0021,0.0036,-0.016,-0.0162,-0.0163,-0.0164,0,0,0.0202,0.0195,0.02,0.0207,0.0192,0.0194,0.0209,0.0208,0.0229,0.0191,0.0226,0.0176,0.0154,0.0136,0.0087,0.0103,0.018,0.006,0.006,0.012,0.027,0.0245,0.0258,0.015,0.0153,0.0155,0.0273,0,0.0246,0.0276,0.0268,0.0301,0.0308,0.0286,0.0308,0.0305,0.0293,0.0317,0.028,0.029,0.0208,0.0209,0.0215,0.0191,0.0221,0.0154,0.0196,0.0198,0.0182,0.0275,0.0254,0.0356,0.0287,0.0289,0.0291,0,0.0296,0.0302,0.0336,0.0359,0.0366,0.0387,0.0418,0.0435,0.0455,0.0452,0.0463,0.0435,0.0459,0.0376,0.0399,0.0361,0.0335,0.031,0.0313,0.0277,0.0201,0.0287,0.0385,0.0174,0.0313,0.0312,0.031,0,0.0328,0.0359,0.0384,0.0388,0.0404,0.0431,0.0453,0.0476,0.0516,0.0555,0.0605,0.0597,0.0636,0.0595,0.0545,0.0482,0.0583,0.0484,0.0445,0.0443,0.043,0.0421,0.0345,0.0523,0.0523,0.0523,0.0522,0,0.0368,0.0391,0.0401,0.0409,0.0465,0.0471,0.0543,0.0564,0.0629,0.0729,0.0688,0.0785,0.0697,0.073,0.0636,0.0618,0.0664,0.0501,0.0485,0.0455,0.0449,0.0265,0.0154,0.0527,0.0526,0.0525,0.0524,0,0.0389,0.0394,0.0423,0.045,0.0473,0.0514,0.0607,0.0676,0.0725,0.0866,0.09,0.0966,0.1032,0.0944,0.0918,0.077,0.0618,0.0697,0.0676,0.0654,0.036,0.0256,0.0213,0.0135,0.0663,0.0663,0.0663,0,0.0403,0.0411,0.0449,0.0495,0.0512,0.0579,0.0653,0.0713,0.0811,0.1001,0.1101,0.1208,0.134,0.1285,0.1068,0.0936,0.0717,0.0749,0.0603,0.0383,0.0255,0.0161,0.0091,0.0627,0.0627,0.0627,0.0627,0,0.0419,0.0424,0.0451,0.0544,0.0622,0.0712,0.0828,0.0915,0.1046,0.1208,0.146,0.1591,0.1565,0.147,0.1236,0.1067,0.058,0.074,0.0526,0.025,0.0136,0.004,0.051,0.0626,0.0626,0.0626,0.0626,0.0626,0.0439,0.0465,0.0517,0.0612,0.0721,0.0866,0.0965,0.1133,0.134,0.1641,0.1739,0.2034,0.1768,0.1482,0.1215,0.0622,0.0634,0.0392,0.03,0.0238,0.0107,0.0581,0.0652,0.0652,0.0653,0.0653,0.0653,0,0.047,0.0514,0.0602,0.0731,0.088,0.0916,0.1114,0.1257,0.1544,0.189,0.2155,0.2254,0.1888,0.144,0.0674,0.0248,0.0066,-0.0007,-0.0166,-0.0205,0.0238,0.0172,0.0126,0.0126,0.0126,0.0126,0.0126,0.0127,0.0495,0.0567,0.0613,0.0848,0.0966,0.117,0.1287,0.1529,0.1802,0.225,0.2526,0.2695,0.2319,0.0948,-0.0008,-0.024,-0.0529,-0.0581,-0.0702,-0.0459,-0.0431,-0.0404,-0.0494,-0.068,-0.0681,-0.1128,-0.1133,-0.1136]}],[{"header":{"parameterUnit":"m.s-1","parameterCategory":2,"la1":30.2991,"la2":30.254,"lo1":-89.0895,"lo2":-89.0444,"dy":0.0017,"dx":0.0017,"nx":28,"ny":28,"refTime":"2024-08-03T09:00:00:Z","depth":"2","parameterNumber":2,"parameterNumberName":"U-component_of_CURRENTS"},"data":[0,0,0,0,0,0,0,0,0,0,0,0,0,0,0,0,0,0,0,0,0,0,0,0,0,0,0,0,0,0,0,0,0,0,0,0,0,0,0,0,0,0,0,0,0,0,0,0,0,0,0,0,0,0,0,0,0,0,0.2824,0.2826,0,0.2903,0.2903,0.2904,0.2924,0.2924,0.2924,0.2924,0.2949,0.295,0.295,0,0,0,0,0,0,0,0,0,0,0,0,0,0.2784,0.2784,0.2824,0.2826,0.2827,0.2903,0.2903,0.2904,0.2924,0.2924,0.2924,0.2924,0.2949,0.2949,0.295,0,0,0,0,0,0,0,0,0,0,0,0,0,0.282,0.2784,0.2824,0.2851,0.2854,0.2903,0.2903,0.2904,0.2924,0.2924,0.2924,0.2924,0.2948,0.2949,0.295,0.2955,0,0,0.2953,0.2954,0,0,0,0,0,0,0,0,0.2818,0.2821,0.2845,0.2849,0.2853,0.2909,0.2899,0.2921,0.2924,0.2891,0.2924,0.2924,0.2934,0.2936,0.2944,0.2957,0.2958,0.2953,0.2954,0.2954,0.2955,0,0,0,0,0,0,0,0.2815,0.2818,0.285,0.2847,0.2852,0.2891,0.2894,0.2903,0.2906,0.2894,0.2897,0.2915,0.2935,0.2943,0.2944,0.2958,0.2953,0.2954,0.2955,0.2955,0.3066,0.3068,0,0,0,0,0,0,0.2812,0.2815,0.2847,0.2853,0.2842,0.2891,0.2895,0.2886,0.2907,0.2913,0.2915,0.2916,0.2941,0.2943,0.2945,0.3027,0.2954,0.2955,0.2956,0.3063,0.3066,0.3069,0,0,0,0,0,0,0.281,0.2813,0.2844,0.2842,0.285,0.2892,0.2882,0.2888,0.2915,0.2925,0.2928,0.2939,0.2941,0.2944,0.2978,0.3025,0.2956,0.2957,0.3061,0.3064,0.3068,0.3142,0,0,0,0,0,0,0.2808,0.2811,0.2821,0.2841,0.285,0.2885,0.2882,0.2889,0.2928,0.293,0.2946,0.2947,0.2941,0.2976,0.2979,0.3025,0.2957,0.3058,0.3062,0.3066,0.3137,0.3148,0.3157,0,0,0,0,0,0.2806,0.2815,0.282,0.2826,0.2855,0.2887,0.2895,0.2922,0.2929,0.2945,0.2963,0.2948,0.3007,0.2979,0.2981,0.3029,0.3056,0.3061,0.3066,0.3132,0.3145,0.3157,0,0,0,0,0,0,0.2788,0.2819,0.2825,0.2838,0.2868,0.2893,0.2915,0.2935,0.2962,0.2968,0.2968,0.2971,0.3022,0.3016,0.2985,0.3076,0.3033,0.3039,0.3082,0.3095,0.3105,0.3152,0.2958,0,0,0,0,0,0.2792,0.2814,0.2839,0.2852,0.2863,0.2892,0.2916,0.2937,0.296,0.2973,0.2985,0.3008,0.3044,0.306,0.3078,0.312,0.315,0.3157,0.3168,0.3176,0.3218,0.3276,0.3296,0.3086,0.3086,0.3086,0,0,0.2792,0.2811,0.2825,0.2854,0.287,0.2903,0.2904,0.2942,0.2977,0.297,0.3014,0.304,0.3063,0.3115,0.3139,0.3117,0.3257,0.3183,0.319,0.3229,0.3284,0.3305,0.3323,0.309,0.3089,0.3089,0,0,0.2806,0.2809,0.2838,0.2864,0.2909,0.2926,0.2942,0.2977,0.2996,0.3055,0.3061,0.3125,0.3161,0.3196,0.3219,0.33,0.3306,0.3302,0.3395,0.3449,0.3467,0.3483,0.3565,0.3588,0.3309,0.3309,0.3309,0,0.2817,0.2831,0.2853,0.2886,0.2903,0.2937,0.2961,0.2997,0.3046,0.3086,0.3081,0.3201,0.3212,0.3303,0.3345,0.3326,0.3366,0.3339,0.3463,0.348,0.3495,0.3575,0.3599,0.3313,0.3313,0.3312,0.3312,0,0.2842,0.2868,0.288,0.2928,0.2952,0.2977,0.3018,0.3065,0.3104,0.3162,0.3265,0.3299,0.3379,0.3395,0.3406,0.3525,0.3523,0.3464,0.343,0.3521,0.3599,0.3623,0.3319,0.3318,0.3317,0.3316,0,0,0.2834,0.289,0.2898,0.2924,0.2968,0.2994,0.3052,0.3127,0.321,0.3281,0.3374,0.3476,0.3525,0.3557,0.3567,0.364,0.3787,0.3619,0.3619,0.37,0.3945,0.3794,0.3806,0.3743,0.3747,0.3751,0.3963,0,0.2847,0.2901,0.2922,0.2978,0.2999,0.3042,0.3115,0.3203,0.3272,0.3376,0.3458,0.3561,0.357,0.3628,0.3702,0.3758,0.3852,0.3738,0.3848,0.3854,0.3705,0.3828,0.3482,0.3628,0.3986,0.399,0.3993,0,0.2861,0.2895,0.292,0.3016,0.3032,0.3092,0.3198,0.3263,0.3419,0.3498,0.3616,0.3665,0.3808,0.3773,0.3963,0.389,0.3954,0.3996,0.4003,0.3858,0.3746,0.3592,0.3657,0.4032,0.4029,0.4026,0.4024,0,0.2812,0.2904,0.2911,0.293,0.3035,0.3092,0.3179,0.3325,0.3394,0.3575,0.368,0.3812,0.3892,0.3996,0.4096,0.4045,0.4285,0.4196,0.4135,0.4126,0.3854,0.3812,0.4351,0.4351,0.4351,0.435,0.4349,0,0.2791,0.283,0.2916,0.2912,0.3019,0.31,0.3211,0.335,0.35,0.3627,0.3747,0.3863,0.3955,0.4073,0.4152,0.4233,0.4332,0.4206,0.4179,0.3869,0.3828,0.418,0.4157,0.4358,0.4356,0.4355,0.4353,0,0.2758,0.2776,0.2811,0.2919,0.2979,0.306,0.323,0.3318,0.3515,0.3667,0.3735,0.3918,0.408,0.4172,0.4329,0.4289,0.4387,0.4391,0.4038,0.3963,0.4185,0.4164,0.4343,0.434,0.4337,0.4334,0.4332,0,0.2738,0.2727,0.2805,0.2816,0.2874,0.3004,0.3096,0.3306,0.3392,0.371,0.378,0.3976,0.4059,0.423,0.4205,0.4284,0.4396,0.4003,0.3821,0.4233,0.419,0.4173,0.4156,0.3519,0.351,0.3504,0.3498,0,0.2669,0.2676,0.2691,0.2781,0.2846,0.2947,0.3112,0.3158,0.3406,0.3546,0.3742,0.3827,0.3971,0.3826,0.3899,0.3904,0.3943,0.3859,0.4411,0.3543,0.3463,0.3417,0.3427,0.3436,0.3442,0.3447,0.345,0.3453,0.2607,0.2648,0.2665,0.2751,0.2813,0.2918,0.2933,0.3069,0.3186,0.3333,0.3515,0.3545,0.3559,0.3446,0.3391,0.3356,0.3618,0.3459,0.3478,0.3505,0.334,0.3255,0.3163,0.3167,0.3171,0.3175,0.3178,0,0.2602,0.2672,0.2663,0.2736,0.274,0.2872,0.2949,0.2876,0.2911,0.3062,0.3129,0.2882,0.2801,0.2883,0.2715,0.2708,0.2662,0.2614,0.2526,0.259,0.2647,0.2434,0.202,0.2016,0.2013,0.2009,0,0,0.2579,0.2603,0.2614,0.2633,0.2694,0.2715,0.2711,0.2606,0.2607,0.2511,0.2502,0.2658,0.2775,0.2352,0.2297,0.2134,0.2339,0.2048,0.298,0.294,0.2991,0.3144,0.289,0,0,0,0,0]},{"header":{"parameterUnit":"m.s-1","parameterCategory":2,"la1":30.2991,"la2":30.254,"lo1":-89.0895,"lo2":-89.0444,"dy":0.0017,"dx":0.0017,"nx":28,"ny":28,"refTime":"2024-08-03T09:00:00:Z","depth":"2","parameterNumber":3,"parameterNumberName":"V-component_of_CURRENTS"},"data":[0,0,0,0,0,0,0,0,0,0,0,0,0,0,0,0,0,0,0,0,0,0,0,0,0,0,0,0,0,0,0,0,0,0,0,0,0,0,0,0,0,0,0,0,0,0,0,0,0,0,0,0,0,0,0,0,0,0,0.0088,0.0087,0,0.0033,0.0032,0.0032,-0.0004,-0.0004,-0.0004,-0.0005,-0.0057,-0.0058,-0.0059,0,0,0,0,0,0,0,0,0,0,0,0,0,0.0122,0.0122,0.0088,0.0087,0.0087,0.0033,0.0032,0.0032,-0.0004,-0.0004,-0.0004,-0.0005,-0.0056,-0.0058,-0.0059,0,0,0,0,0,0,0,0,0,0,0,0,0,0.0092,0.0122,0.0088,0.0062,0.0059,0.0033,0.0032,0.0031,-0.0004,-0.0004,-0.0004,-0.0005,-0.0056,-0.0058,-0.0059,-0.006,0,0,-0.0064,-0.0065,0,0,0,0,0,0,0,0,0.0094,0.0091,0.0067,0.0064,0.006,0.002,0.0025,0.0,-0.0003,0.0021,-0.0005,-0.0005,-0.0031,-0.0035,-0.0043,-0.0063,-0.0065,-0.0065,-0.0066,-0.0066,-0.0067,0,0,0,0,0,0,0,0.0096,0.0093,0.0067,0.0066,0.0062,0.0039,0.0034,0.002,-0.0001,0.0019,0.0016,0.0008,-0.0033,-0.0041,-0.0044,-0.0066,-0.0064,-0.0066,-0.0067,-0.0068,-0.01,-0.01,0,0,0,0,0,0,0.0104,0.0095,0.0069,0.0066,0.0075,0.0038,0.0034,0.0034,-0.0001,-0.0007,0.0009,0.0007,-0.0038,-0.0042,-0.0046,-0.0039,-0.0066,-0.0068,-0.0069,-0.01,-0.01,-0.01,0,0,0,0,0,0,0.0105,0.0102,0.0071,0.0078,0.0072,0.0039,0.0039,0.0033,0.0024,-0.0009,-0.0015,0.0006,-0.0039,-0.0044,-0.0055,-0.0042,-0.0069,-0.007,-0.01,-0.01,-0.01,-0.0031,0,0,0,0,0,0,0.0106,0.0103,0.0107,0.0079,0.0072,0.0065,0.0039,0.0033,0.002,0.0017,-0.0013,-0.0019,-0.0039,-0.0052,-0.0057,-0.0044,-0.0071,-0.0101,-0.01,-0.01,-0.0033,-0.0028,-0.0024,0,0,0,0,0,0.0108,0.0117,0.0107,0.0104,0.0078,0.0066,0.0061,0.0035,0.002,0.0024,0.0001,-0.0018,-0.0054,-0.0053,-0.0058,-0.0046,-0.0101,-0.01,-0.01,-0.0035,-0.0029,-0.0024,0,0,0,0,0,0,0.0133,0.0113,0.0102,0.0105,0.009,0.0059,0.0059,0.0039,0.0023,0.0021,-0.0013,-0.0019,-0.0026,-0.0048,-0.0046,-0.0058,-0.0082,-0.0083,-0.0031,-0.0026,-0.0021,0.0017,-0.0073,0,0,0,0,0,0.0141,0.0143,0.012,0.0122,0.0118,0.0089,0.008,0.0065,0.0045,0.0037,0.0012,-0.0013,-0.0029,-0.0036,-0.0056,-0.0057,-0.0071,-0.0055,-0.0051,-0.0046,-0.002,-0.0041,-0.0035,-0.0099,-0.0099,-0.0099,0,0,0.0148,0.014,0.0138,0.0128,0.0114,0.0122,0.0083,0.0078,0.0088,0.0035,0.0038,0.0002,-0.0028,-0.0031,-0.0036,-0.0045,-0.0037,-0.0046,-0.0042,-0.0018,-0.004,-0.0034,-0.0028,-0.0099,-0.0099,-0.0099,0,0,0.0172,0.0162,0.0174,0.0171,0.0158,0.0146,0.0147,0.0121,0.0115,0.011,0.0073,0.0051,0.0022,0.0007,-0.0004,0.0015,-0.0015,-0.0003,0.0059,0.0038,0.0043,0.0048,0.0038,0.0041,0.0004,0.0004,0.0004,0,0.0184,0.02,0.0176,0.0192,0.0202,0.0162,0.0189,0.0176,0.0148,0.0157,0.0122,0.0085,0.0048,0.0059,0.0057,0.0029,0.0013,0.0042,0.0046,0.0051,0.0054,0.0042,0.0045,0.0007,0.0007,0.0006,0.0006,0,0.022,0.0235,0.0245,0.0259,0.0266,0.028,0.0268,0.0272,0.0253,0.0237,0.0234,0.0178,0.0166,0.0134,0.0101,0.0111,0.0089,0.0052,0.0038,0.0066,0.005,0.0052,0.0012,0.0011,0.001,0.0009,0,0,0.0249,0.0268,0.0275,0.0306,0.0309,0.0328,0.0351,0.037,0.0413,0.0353,0.0397,0.0329,0.0295,0.028,0.0226,0.0196,0.0191,0.0141,0.0138,0.0143,0.0154,0.0101,0.0097,0.0151,0.0151,0.0152,0.0132,0,0.0291,0.0345,0.0344,0.0409,0.0441,0.0436,0.0473,0.0485,0.0488,0.0516,0.0448,0.0461,0.0353,0.0358,0.0306,0.0225,0.0199,0.0201,0.0117,0.0115,0.0075,0.0099,0.0116,0.0096,0.0134,0.0134,0.0134,0,0.0335,0.037,0.044,0.0511,0.0528,0.0561,0.0645,0.0681,0.07,0.0701,0.0684,0.0637,0.059,0.0498,0.0373,0.0377,0.0283,0.0204,0.0201,0.0135,0.0066,0.0073,0.0098,0.0137,0.0137,0.0136,0.0136,0,0.0389,0.0448,0.0515,0.0535,0.0597,0.0643,0.0687,0.0733,0.0804,0.0834,0.0883,0.0797,0.0788,0.0642,0.0461,0.0427,0.0325,0.0259,0.0126,0.0122,0.0114,0.0107,0.0191,0.0192,0.0192,0.0192,0.0192,0,0.0446,0.0501,0.0546,0.0589,0.0696,0.0718,0.0852,0.0881,0.0959,0.1066,0.099,0.1048,0.0824,0.0731,0.0536,0.034,0.0381,0.0156,0.0117,0.0136,0.0132,0.0147,0.0142,0.0191,0.0191,0.0191,0.0191,0,0.0491,0.0519,0.0618,0.0697,0.0725,0.0819,0.0961,0.108,0.1118,0.126,0.1281,0.1244,0.1118,0.0885,0.0665,0.0463,0.0267,0.0192,0.023,0.0194,0.0061,0.006,0.0048,0.0046,0.0045,0.0043,0.0042,0,0.0517,0.0564,0.0693,0.0795,0.0837,0.0966,0.1083,0.1154,0.1279,0.1387,0.1468,0.14,0.136,0.1012,0.0659,0.0328,0.0281,0.0127,0.0052,0.0086,0.0049,0.005,0.0051,0.0073,0.0072,0.0071,0.0071,0,0.0586,0.0636,0.0729,0.0902,0.1048,0.1212,0.1356,0.1468,0.1579,0.1659,0.1755,0.1729,0.1415,0.1078,0.0621,0.0389,0.0168,0.0101,0.0152,0.0094,0.0103,0.0068,0.007,0.0065,0.0065,0.0066,0.0066,0.0066,0.0652,0.0739,0.0871,0.103,0.1218,0.1432,0.1578,0.1712,0.1873,0.1964,0.1938,0.1856,0.1501,0.0888,0.0529,0.0138,0.0142,-0.002,-0.0015,-0.001,-0.0016,-0.0012,-0.0072,-0.0072,-0.0072,-0.0072,-0.0072,0,0.0763,0.0824,0.0993,0.1222,0.1433,0.1499,0.1749,0.1874,0.2037,0.2051,0.2055,0.1686,0.1326,0.0922,0.0344,0.0001,-0.0017,-0.0113,-0.0056,-0.0048,-0.0042,-0.0048,-0.0113,-0.0114,-0.0114,-0.0115,0,0,0.0836,0.0989,0.105,0.1339,0.151,0.1764,0.1909,0.2064,0.2109,0.2083,0.1972,0.1852,0.1396,0.0968,0.0524,0.0208,0.0154,0.0137,0.0201,0.0328,0.0339,0.0037,0.0038,0,0,0,0,0]}],[{"header":{"parameterUnit":"m.s-1","parameterCategory":2,"la1":30.2991,"la2":30.254,"lo1":-89.0895,"lo2":-89.0444,"dy":0.0017,"dx":0.0017,"nx":28,"ny":28,"refTime":"2024-08-03T09:00:00:Z","depth":"4","parameterNumber":2,"parameterNumberName":"U-component_of_CURRENTS"},"data":[0,0,0,0,0,0,0,0,0,0,0,0,0,0,0,0,0,0,0,0,0,0,0,0,0,0,0,0,0,0,0,0,0,0,0,0,0,0,0,0,0,0,0,0,0,0,0,0,0,0,0,0,0,0,0,0,0,0,0.1551,0.1552,0,0.1606,0.1606,0.1606,0.1658,0.1659,0.166,0.1661,0.1707,0.1707,0.1707,0,0,0,0,0,0,0,0,0,0,0,0,0,0.1511,0.1511,0.1551,0.1552,0.1553,0.1606,0.1606,0.1607,0.1658,0.1659,0.166,0.1661,0.1707,0.1707,0.1707,0,0,0,0,0,0,0,0,0,0,0,0,0,0.154,0.1511,0.1551,0.1587,0.1591,0.1606,0.1606,0.1607,0.1657,0.1659,0.166,0.1662,0.1706,0.1707,0.1707,0.1682,0,0,0.1709,0.1709,0,0,0,0,0,0,0,0,0.1538,0.1541,0.1581,0.1585,0.1589,0.1629,0.1609,0.1633,0.1657,0.1629,0.1661,0.1662,0.1681,0.1684,0.1686,0.1684,0.1686,0.1709,0.1709,0.171,0.171,0,0,0,0,0,0,0,0.1536,0.1539,0.1569,0.1582,0.1587,0.1608,0.1613,0.1614,0.1643,0.1631,0.1636,0.1647,0.1683,0.1686,0.1688,0.1687,0.1709,0.1709,0.171,0.171,0.1773,0.1775,0,0,0,0,0,0,0.1533,0.1537,0.1567,0.1571,0.1571,0.1608,0.1614,0.1612,0.1644,0.1651,0.1646,0.1649,0.1684,0.1687,0.169,0.1761,0.171,0.171,0.171,0.1772,0.1774,0.1775,0,0,0,0,0,0,0.1532,0.1535,0.1565,0.1559,0.1565,0.1607,0.1605,0.1613,0.1653,0.1656,0.1662,0.1684,0.1685,0.1689,0.1726,0.1759,0.171,0.1711,0.177,0.1772,0.1774,0.1839,0,0,0,0,0,0,0.153,0.1534,0.1551,0.1558,0.1565,0.1593,0.1605,0.1613,0.1657,0.1663,0.1689,0.1693,0.1687,0.1725,0.1726,0.1759,0.1711,0.1769,0.1771,0.1774,0.1836,0.1843,0.185,0,0,0,0,0,0.1529,0.1537,0.1551,0.1556,0.158,0.1594,0.16,0.1633,0.1658,0.1675,0.1702,0.1694,0.1743,0.1727,0.1728,0.1761,0.1767,0.177,0.1773,0.1832,0.1842,0.185,0,0,0,0,0,0,0.1534,0.1543,0.1559,0.1573,0.1595,0.1605,0.1631,0.1652,0.1686,0.1705,0.1708,0.1714,0.1759,0.175,0.1732,0.1788,0.1755,0.1758,0.1799,0.1808,0.1815,0.182,0.1712,0,0,0,0,0,0.1541,0.155,0.1564,0.1582,0.1593,0.162,0.164,0.1661,0.1684,0.1703,0.1726,0.1748,0.1764,0.178,0.179,0.1816,0.1826,0.184,0.1847,0.1854,0.1859,0.1923,0.1937,0.1785,0.1785,0.1785,0,0,0.1553,0.1558,0.1569,0.1585,0.1606,0.1618,0.1635,0.1671,0.1692,0.17,0.1752,0.1776,0.1778,0.1813,0.1832,0.1815,0.1898,0.1857,0.1863,0.1864,0.1928,0.1943,0.1956,0.1787,0.1787,0.1787,0,0,0.1565,0.1583,0.1593,0.1606,0.164,0.1647,0.1665,0.1698,0.1729,0.177,0.1788,0.1841,0.1858,0.1879,0.1884,0.1937,0.1936,0.1941,0.1983,0.2047,0.206,0.2072,0.2089,0.2102,0.1945,0.1945,0.1945,0,0.1582,0.1584,0.1602,0.1612,0.1621,0.1661,0.167,0.1701,0.175,0.1782,0.1797,0.1875,0.1889,0.1934,0.196,0.1956,0.1977,0.1949,0.2058,0.207,0.2081,0.2096,0.2109,0.1949,0.1948,0.1948,0.1948,0,0.1588,0.1602,0.161,0.1625,0.1641,0.1656,0.1688,0.1736,0.1782,0.1817,0.1897,0.1932,0.1984,0.1998,0.1995,0.208,0.2063,0.2061,0.2037,0.21,0.2111,0.2124,0.1954,0.1952,0.1951,0.1951,0,0,0.1578,0.1605,0.161,0.1618,0.1644,0.1655,0.1701,0.1746,0.1801,0.187,0.1939,0.1996,0.2052,0.2063,0.2086,0.2142,0.2239,0.2142,0.2144,0.2161,0.2358,0.2221,0.2221,0.2268,0.2271,0.2273,0.2329,0,0.1574,0.1577,0.1597,0.1615,0.1611,0.166,0.1685,0.1744,0.1821,0.1906,0.1976,0.2057,0.2063,0.212,0.2176,0.2238,0.2279,0.2222,0.2292,0.2293,0.2167,0.2234,0.2282,0.2339,0.2342,0.2344,0.2345,0,0.1551,0.1558,0.1556,0.1587,0.1595,0.1626,0.1695,0.173,0.185,0.1926,0.2038,0.2106,0.2219,0.2213,0.2343,0.2313,0.234,0.2369,0.2372,0.2231,0.2181,0.2265,0.2368,0.2366,0.2365,0.2363,0.2362,0,0.1479,0.1524,0.1517,0.1525,0.1567,0.1608,0.1649,0.1748,0.1812,0.1974,0.2066,0.2186,0.2285,0.2351,0.2439,0.2409,0.2563,0.2522,0.2407,0.2396,0.2472,0.2459,0.2594,0.2594,0.2594,0.2594,0.2593,0,0.1406,0.1419,0.1504,0.149,0.152,0.1574,0.165,0.1717,0.186,0.1948,0.2086,0.2189,0.2336,0.2442,0.2473,0.2492,0.2598,0.2422,0.2413,0.2494,0.2483,0.248,0.2466,0.2596,0.2595,0.2595,0.2594,0,0.1299,0.1343,0.1352,0.1431,0.1472,0.1492,0.1646,0.1709,0.1858,0.199,0.2057,0.2243,0.2379,0.2486,0.261,0.2535,0.2568,0.2538,0.2619,0.2612,0.2333,0.2322,0.2387,0.2383,0.238,0.2377,0.2374,0,0.1234,0.122,0.1301,0.1321,0.1368,0.1455,0.1508,0.1678,0.1767,0.2005,0.2048,0.2253,0.2361,0.2422,0.2528,0.2568,0.2537,0.2506,0.2404,0.2333,0.2319,0.2313,0.2307,0.2369,0.2368,0.2367,0.2366,0,0.1109,0.1148,0.1167,0.1222,0.1288,0.1326,0.1443,0.1513,0.1707,0.1896,0.2029,0.212,0.2255,0.2343,0.241,0.2425,0.2503,0.2468,0.2473,0.2377,0.2312,0.23,0.2298,0.2354,0.2356,0.2357,0.2357,0,0.1033,0.1032,0.1078,0.1136,0.1176,0.116,0.1247,0.1383,0.1495,0.1795,0.1844,0.2054,0.2248,0.227,0.2332,0.235,0.2286,0.2175,0.2194,0.2208,0.2124,0.2014,0.1968,0,0,0,0,0,0.0936,0.0947,0.0995,0.101,0.1041,0.107,0.1179,0.1286,0.1532,0.1585,0.172,0.1851,0.1968,0.2069,0.2048,0.2198,0.2257,0.2157,0.2127,0.2287,0.2301,0.2219,0,0,0,0,0,0,0.0862,0.0887,0.0964,0.0911,0.0907,0.0913,0.0966,0.1117,0.1172,0.1442,0.1527,0.173,0.1873,0.1987,0.202,0.2047,0.1981,0.2302,0.2297,0.2279,0.2292,0.2303,0.2224,0,0,0,0,0]},{"header":{"parameterUnit":"m.s-1","parameterCategory":2,"la1":30.2991,"la2":30.254,"lo1":-89.0895,"lo2":-89.0444,"dy":0.0017,"dx":0.0017,"nx":28,"ny":28,"refTime":"2024-08-03T09:00:00:Z","depth":"4","parameterNumber":3,"parameterNumberName":"V-component_of_CURRENTS"},"data":[0,0,0,0,0,0,0,0,0,0,0,0,0,0,0,0,0,0,0,0,0,0,0,0,0,0,0,0,0,0,0,0,0,0,0,0,0,0,0,0,0,0,0,0,0,0,0,0,0,0,0,0,0,0,0,0,0,0,0.0143,0.0143,0,0.0121,0.012,0.012,0.0108,0.0108,0.0108,0.0108,0.0091,0.0091,0.009,0,0,0,0,0,0,0,0,0,0,0,0,0,0.0147,0.0147,0.0143,0.0143,0.0142,0.0121,0.012,0.012,0.0108,0.0108,0.0108,0.0108,0.0091,0.0091,0.009,0,0,0,0,0,0,0,0,0,0,0,0,0,0.0137,0.0147,0.0143,0.0134,0.0132,0.0121,0.012,0.012,0.0108,0.0108,0.0108,0.0108,0.0091,0.0091,0.009,0.0089,0,0,0.0089,0.0088,0,0,0,0,0,0,0,0,0.0138,0.0137,0.0135,0.0134,0.0133,0.0117,0.0115,0.011,0.0108,0.0118,0.0108,0.0108,0.01,0.0099,0.0095,0.0088,0.0087,0.0088,0.0088,0.0088,0.0088,0,0,0,0,0,0,0,0.0139,0.0138,0.0135,0.0135,0.0133,0.012,0.0119,0.0114,0.011,0.0117,0.0116,0.0113,0.0099,0.0096,0.0095,0.0087,0.0088,0.0088,0.0088,0.0087,0.0077,0.0077,0,0,0,0,0,0,0.0142,0.0139,0.0135,0.0134,0.0135,0.012,0.0119,0.0122,0.011,0.0108,0.0113,0.0112,0.0097,0.0096,0.0094,0.0106,0.0088,0.0087,0.0087,0.0077,0.0077,0.0077,0,0,0,0,0,0,0.0142,0.0142,0.0136,0.0135,0.0133,0.0121,0.0124,0.0122,0.0122,0.0107,0.0105,0.0115,0.0097,0.0095,0.0094,0.0105,0.0087,0.0087,0.0077,0.0077,0.0077,0.0121,0,0,0,0,0,0,0.0143,0.0143,0.0148,0.0136,0.0133,0.0136,0.0124,0.0122,0.0119,0.0118,0.0108,0.0106,0.0097,0.0095,0.0093,0.0104,0.0086,0.0077,0.0077,0.0077,0.0119,0.0123,0.0125,0,0,0,0,0,0.0143,0.015,0.0149,0.0148,0.0141,0.0137,0.0135,0.0125,0.012,0.0124,0.0115,0.0107,0.0094,0.0094,0.0092,0.0103,0.0077,0.0077,0.0077,0.0118,0.0122,0.0125,0,0,0,0,0,0,0.0154,0.015,0.0147,0.0153,0.0149,0.0135,0.0137,0.0129,0.0125,0.0126,0.011,0.0108,0.0108,0.0098,0.0098,0.0099,0.0083,0.0083,0.0115,0.0118,0.0121,0.0139,0.0086,0,0,0,0,0,0.0159,0.0166,0.0157,0.0163,0.0162,0.0151,0.0148,0.0143,0.0136,0.0134,0.0124,0.0114,0.0106,0.0107,0.0097,0.0102,0.0071,0.0105,0.0108,0.0111,0.0123,0.0074,0.0074,0.0078,0.0078,0.0078,0,0,0.0163,0.0163,0.0166,0.0166,0.0162,0.0173,0.0149,0.0151,0.0164,0.0133,0.0145,0.0123,0.0108,0.0111,0.0111,0.0106,0.0092,0.0111,0.0114,0.0124,0.0074,0.0074,0.0073,0.0078,0.0078,0.0078,0,0,0.0179,0.0177,0.0191,0.0193,0.0193,0.0189,0.0192,0.0182,0.0182,0.0188,0.0165,0.0149,0.0146,0.0132,0.0127,0.0139,0.0105,0.0136,0.0172,0.0125,0.0124,0.0123,0.0078,0.0073,0.0143,0.0143,0.0143,0,0.0186,0.0207,0.0193,0.021,0.0223,0.0201,0.0226,0.0221,0.0212,0.0215,0.0201,0.0175,0.0157,0.0157,0.0161,0.0147,0.0115,0.0163,0.0129,0.0128,0.0126,0.008,0.0074,0.0145,0.0145,0.0144,0.0144,0,0.0214,0.0235,0.0244,0.0266,0.0273,0.029,0.0286,0.029,0.0284,0.0276,0.0268,0.0231,0.0219,0.0204,0.0192,0.0175,0.0153,0.0134,0.0122,0.0128,0.0079,0.0072,0.0148,0.0147,0.0147,0.0146,0,0,0.0227,0.0259,0.0267,0.0297,0.031,0.0325,0.0344,0.0358,0.0377,0.0346,0.0358,0.0325,0.0293,0.0284,0.0249,0.021,0.0163,0.0176,0.0172,0.0136,0.0058,0.0049,0.0039,0.0136,0.0135,0.0134,0.0027,0,0.0261,0.0319,0.032,0.0379,0.0413,0.0408,0.0432,0.0438,0.0434,0.0434,0.0381,0.0378,0.0328,0.0324,0.0272,0.0193,0.0147,0.0194,0.0055,0.0051,0.0045,0.0032,0.0131,0.0021,0.0019,0.0018,0.0017,0,0.0295,0.0336,0.0406,0.0459,0.0472,0.0499,0.0543,0.0561,0.0548,0.0546,0.0515,0.0469,0.0412,0.0366,0.0225,0.0258,0.0169,0.0097,0.009,0.0066,0.0028,0.0013,0.0003,0.0004,0.0005,0.0006,0.0007,0,0.0336,0.0397,0.0465,0.0485,0.0535,0.0564,0.0585,0.0596,0.0633,0.0616,0.0626,0.054,0.0505,0.0377,0.0226,0.0227,0.006,0.0039,-0.0058,-0.006,-0.0038,-0.0036,-0.0062,-0.0062,-0.0062,-0.0061,-0.0061,0,0.0379,0.043,0.0493,0.0533,0.0616,0.0622,0.0699,0.0705,0.0726,0.0768,0.0686,0.068,0.0507,0.0388,0.0244,0.0069,0.0067,-0.0051,-0.0088,-0.0019,-0.0013,-0.0044,-0.0041,-0.0065,-0.0065,-0.0064,-0.0063,0,0.0409,0.045,0.0537,0.0612,0.0643,0.0704,0.0788,0.0842,0.084,0.0887,0.0887,0.0786,0.0629,0.0439,0.0226,0.0104,-0.0068,-0.0129,-0.0039,-0.0069,-0.0161,-0.0154,-0.0243,-0.0245,-0.0246,-0.0246,-0.0247,0,0.0428,0.0481,0.0605,0.0672,0.0711,0.0802,0.0876,0.0912,0.0962,0.0948,0.0965,0.0834,0.074,0.0431,0.0223,-0.006,-0.01,-0.019,-0.0177,-0.0153,-0.0179,-0.0171,-0.0163,-0.0249,-0.0249,-0.0249,-0.025,0,0.047,0.0522,0.0594,0.0734,0.0835,0.0943,0.1025,0.1072,0.1103,0.1106,0.104,0.0876,0.0692,0.0441,0.0219,0.0015,-0.0132,-0.0201,-0.02,-0.0189,-0.0161,-0.0184,-0.0175,-0.0253,-0.0253,-0.0252,-0.0252,0,0.0502,0.0563,0.0669,0.0785,0.0909,0.1018,0.1075,0.1119,0.1165,0.1134,0.1109,0.0904,0.0789,0.0479,0.0272,0.007,0.0019,-0.0043,-0.0051,-0.005,0.0034,0.01,0.0058,0,0,0,0,0,0.0542,0.0607,0.0711,0.0842,0.0956,0.1039,0.1142,0.1186,0.1213,0.1187,0.1149,0.0977,0.0665,0.0523,0.0321,0.0238,-0.0026,-0.0006,-0.0103,-0.0273,-0.0269,-0.0204,0,0,0,0,0,0,0.0567,0.0668,0.0709,0.0849,0.0946,0.109,0.1166,0.1203,0.1173,0.1162,0.1,0.0926,0.0621,0.0785,0.0318,0.0255,0.0164,-0.015,-0.0154,-0.0275,-0.0271,-0.0268,-0.02,0,0,0,0,0]}]]